www.pogodaiklimat.ru

ПОГОДА в Ардморе, OK

  • Прогноз погоды в Ардморе
  • Монитор погоды в Ардморе
  • Климат в Ардморе

АРХИВ ПОГОДЫ в Ардморе

Время (UTC), дата Ветер
(напр.,м/с)
 
Видим.   Явления Облачность Т
(С)
Тd
(С)
f
(%)
Тe
(С)
Тes
(С)
Комфортность

P
(гПа)

Po
(гПа)
Тmin
(С)
Tmax
(С)
R
(мм)
SD
(см)
08:15 24.03 Ю  16 км    10/10 570 м  +17.7  +15.4  86  +18  +18      986.8         
08:35 24.03 Ю  16 км    10/10 630 м  +17.6  +15.3  86  +17  +17      986.8         
08:55 24.03 Ю  16 км    10/10 630 м  +17.7  +15.5  87  +17  +17      986.8         
09:15 24.03 Ю  3
{4} 
16 км    10/10 630 м  +17.9  +15.5  86  +18  +18      986.8         
09:35 24.03 Ю  6
{9} 
16 км    10/10 570 м  +18.0  +15.5  85  +17  +17      986.8         
09:55 24.03 Ю  6
{8} 
16 км    10/10 510 м  +18.0  +15.5  85  +17  +17      987.2         
10:15 24.03 Ю  16 км    10/10 510 м  +17.5  +15.4  87  +17  +17      987.2         
10:35 24.03 Ю  16 км    10/10 450 м  +17.2  +15.2  88  +17  +17      987.2         
10:50 24.03 Ю  16 км    10/10 390 м  +16.7  +15.0  90  +16  +16      987.2  +16.7  +18.0     
10:55 24.03 Ю  16 км    10/10 390 м  +16.0  +15.0  94  +15  +15      987.2         
11:55 24.03 ЮЗ  16 км    8/8 330 м  +16.0  +15.0  94  +15  +15      987.8         
12:55 24.03 ЮЗ  16 км    5/5 270 м  +17.0  +15.0  88  +16  +16      988.2         
13:55 24.03 ЮЗ  16 км    5/5 420 м  +19.0  +16.0  83  +20  +21      988.5         
14:55 24.03 ЮЗ  16 км    10/10 720 м  +21.0  +17.0  78  +25  +25  комфорт    988.5         
15:55 24.03 З  7
{11} 
16 км    10/10 960 м  +23.0  +17.0  69  +28  +28  душно    988.2         
16:55 24.03 З  6
{8} 
16 км    8/8 1080 м  +24.0  +16.0  61  +27  +28  жарко    987.8         
17:55 24.03 З  6
{9} 
16 км    8/8 1260 м  +26.0  +16.0  54  +29  +30  душно    987.2         
18:55 24.03 ЮЗ  6
{8} 
16 км    5/5 1440 м  +25.0  +15.0  54  +28  +30  жарко    987.2         
19:55 24.03 З  7
{9} 
16 км    ясно  +26.0  +15.0  51  +29  +31  душно    986.8         
20:55 24.03 З  16 км    ясно  +25.3  +12.0  43  +27  +32  жарко    986.5         
21:15 24.03 З  16 км    ясно  +25.8  +11.6  41  +27  +29  жарко    986.5         
21:35 24.03 СЗ  6
{8} 
16 км    ясно  +25.1  +11.0  41  +26  +28  жарко    986.2         
21:55 24.03 СЗ  16 км    ясно  +24.3  +11.2  44  +26  +28  жарко    986.2         
22:15 24.03 СЗ  16 км    ясно  +24.2  +11.1  44  +26  +27  жарко    986.2         
22:35 24.03 СЗ  16 км    ясно  +23.2  +11.1  46  +25  +27  комфорт    986.2         
22:55 24.03 С  16 км    ясно  +23.7  +10.9  44  +25  +26  комфорт    986.2  +22.7  +26.4     
23:15 24.03 С  16 км    ясно  +22.0  +12.7  56  +25  +25  комфорт    986.2         
23:35 24.03 С  16 км    ясно  +21.1  +12.8  59  +23  +23  комфорт    986.5         
23:55 24.03 С  16 км    ясно  +20.3  +12.6  61  +22  +22  комфорт    986.8         
00:15 25.03 С  16 км    ясно  +19.4  +12.0  62  +20  +20      987.2         
00:35 25.03 С  16 км    ясно  +19.1  +11.5  61  +20  +20      987.5         
00:55 25.03 С  4
{7} 
16 км    ясно  +18.3  +11.1  63  +18  +18      987.8         
01:15 25.03 С  16 км    ясно  +17.9  +11.0  64  +17  +17      988.2         
01:35 25.03 С  16 км    ясно  +17.1  +11.0  67  +16  +16      988.8         
01:55 25.03 С  16 км    ясно  +16.2  +10.7  70  +15  +15      989.1         
02:15 25.03 С  16 км    ясно  +15.9  +10.5  70  +15  +15      989.8         
02:35 25.03 С  16 км    ясно  +15.4  +10.3  72  +15  +15      990.1         
02:55 25.03 С  16 км    ясно  +15.0  +10.1  72  +14  +14      990.1         
03:15 25.03 С  16 км    ясно  +14.9  +9.7  71  +14  +14      990.5         
03:35 25.03   16 км    ясно  +15.1  +9.5  69  +15  +15      990.8         
03:55 25.03 С  16 км    ясно  +14.4  +9.3  71  +14  +14      990.8         
04:15 25.03 С  16 км    ясно  +13.8  +9.0  73  +14  +14      991.1         
04:35 25.03 С  16 км    ясно  +12.2  +8.8  80  +12  +12      991.1         
04:55 25.03   16 км    ясно  +11.6  +8.7  82  +11  +11      991.1  +11.2  +23.5     
05:15 25.03   16 км    ясно  +10.8  +7.9  82  +10  +10      990.8         
05:35 25.03 С  16 км    ясно  +9.8  +8.3  90  +8  +8      990.8         
05:55 25.03 С  16 км    ясно  +9.4  +8.3  93  +7  +7      990.5         
06:15 25.03 С  16 км    ясно  +10.6  +8.5  87  +8  +8      990.1         

 

Местоположение метеостанции Ardmore Municipal Airport: широта 34.3031 долгота -97.0194 высота над уровнем моря 232 м.

В архиве по умолчанию представлена погода в Ардморе за последние 1-2 суток. Обновление информации о фактической погоде в базе происходит ежечасно! Архивные данные за месяц целиком и за предыдущие месяцы Вы можете получить, выбрав интересующий диапазон дат из раскрывающегося списка и нажав кнопку "Ввод!".

Внимание! Архив погоды МЕТАР в базе сайта хранится не более 60 дней. Нет смысла пытаться выбрать более раннюю дату.

Внимание! Время в таблицах - всемирное. Для получения местного времени необходимо прибавить поправку, которая в Ардморе равна -6 ч.

Ветер - указаны скорость ветра в м/с и направление, откуда дует ветер: С - северный, СВ - северо-восточный, В - восточный, ЮВ - юго-восточный, Ю - южный, ЮЗ - юго-западный, З - западный, СЗ - северо-западный.
Видимость - горизонтальная дальность видимости в метрах или километрах. При видимости от 1 до 10 км при отсутствии осадков обычно наблюдается дымка, при ухудшении видимости до 1 км и менее - туман. В сухую погоду видимость может ухудшаться дымом, пылью или мглою.
Атмосферные явления - указаны явления, наблюдавшиеся в указанный момент времени.
Облачность - указаны через наклонную черту верхняя и нижняя облачность в баллах и высота нижней границы облаков в метрах. Внимание: облачность, как и прочие метеорологические величины в США измеряются автоматическими метеостанциями. Указанные значения в баллах носят условный характер и показывают процент времени, в течение которого, в среднем, лазерный луч высотомера отражался от облаков обратно.
T - Температура воздуха - температура, измеренная на высоте 2 м над землей.
Td - Температура точки росы - температура, при понижении до которой содержащийся в воздухе водяной пар достигнет насыщения.
f - Относительная влажность воздуха - влажноcть воздуха, измеренная на высоте 2 м над землей.
Te - Эффективная температура - температура, которую ощущает одетый по сезону человек в тени. Характеристика душности погоды. При расчете учитывается влияние влажности воздуха и скорости ветра на теплоощущения человека.
Tes - Эффективная температура на солнце - температура, которую ощущает человек, с поправкой на солнечный нагрев. Характеристика знойности погоды. Зависит от высоты солнца над горизонтом, облачности и скорости ветра. Ночью, в пасмурную погоду, а также при ветре 12 м/с и более поправка равна нулю.
P - Атмосферное давление - приведенное к уровню моря атмосферное давление.
Po - Атмосферное давление - измеренное на уровне метеостанции атмосферное давление.
Tmin - Минимальная температура - минимум температуры воздуха на высоте 2 м над землей.
Tmax - Максимальная температура - максимум температуры воздуха на высоте 2 м над землей.
R - Количество осадков - Количество выпавших осадков за 3 или 6 часов, мм.
SD - Снежный покров - Высота снежного покрова, см.